ONEWEB-0314, 49100

Orbit data source: Space-Track

ONEWEB-0314, 49100 is a payload satellite owned by One Web (NAA) (UK) in LEO that was launched on Sat, 21 Aug 2021 UTC via a SOYUZ-2-1B launch vehicle from the Tyuratam Missile And Space Complex (TTMTR). Payload-class satellites include a variety of spacecraft equipped with specific instruments for various scientific and technological missions. These include communications satellites like Starlink; space stations such as the ISS; scientific satellites like the Hubble; Earth observation satellites from companies like Planet Labs, Umbra, and HawkEye 360; GPS; miniature CubeSats for education and research; and military/defense satellites.

Loading next visibility...
Identifier
49100, 2021-075AB
Orbit
LEO
Country
Flag of UKUK
Related business
Manufacturer
One Web
Mission
Operational Commercial Communications
Bus & Motor
ARROW, Unknown motor
Mass
148 kg wet, ~140 kg dry
Launch date (UTC)
2021-08-21 (5 years ago)
Launch vehicle
SOYUZ-2-1B
Launch site
Tyuratam Missile And Space Complex (TTMTR)
Object type
Payload
Rocket body
Debris
Shape & HBR
Trap Box + 2 Pan, 6.7 m
Radar Cross Section
3.464 m², Large (>1 m²)

Expand to show TLE details & history
Last TLE update: 23 hours ago

TLE from 23 hours ago
0 ONEWEB-0314
1 49100U 21075AB  26175.22028880  .00000024  00000-0  29269-4 0  9998
2 49100  87.9143   4.4527 0002240  88.6734 271.4654 13.17649871234492
Epoch: 2026-06-24T05:17Z
TLE epoch observation values (Epoch: 2026-06-24T05:17:12.952Z)
Latitude
-0.00003°
Longitude
12.7681°
Altitude
1,196.565 km
Speed
7.256 km/s
True Right ascension
00h 17m 48s
True Declination
0° 00' 00"
Sunlit
Object was in daylight at epoch
Visualization orbit readout
Latitude
Unknown
Longitude
Unknown
Altitude
Unknown
Speed
Unknown
Apparent Right ascension
Unknown
Apparent Declination
Unknown
Sunlit
N/A
Visualization observer readout
Local Sidereal Time
15:24:59
Azimuth
Unknown
Elevation
Unknown
Doppler factor
Unknown
Orbital elements
Apogee altitude
1,192.514 km
Perigee altitude
1,189.123 km
Semi-major axis
7,568.956 km
Eccentricity
0.00022
Inclination
87.9143°
RAAN
4.4527°
Arg. of periapsis
88.6734°
True anomaly
271.43974°
Mean anomaly
271.4654°
Eccentric anomaly
271.45257°
Mean motion
3.29602 °/min
Orbital period
109.22 mins
BSTAR
0.000029269
Loading maneuver chart data...
Computing Atmospheric mass density...
Loading historical data...
Loading historical data...
Loading historical data...
Loading historical data...
Loading historical data...
Loading historical data...
Loading historical data...

Documentation

Showing up to 5 results
|